#timestamp,LO_Frequency,Hit,StdDev 
1664168415.2,286046996.2,N
1664168435.0,286046999.5,N
1664168435.9,286046999.5,N
1664168455.8,286046999.2,N
1664168475.6,286046998.1,N
1664168495.4,286047003.7,N
1664168515.3,286046999.7,N
1664168535.1,286046998.3,N
1664168555.8,286046996.7,N
1664168575.7,286046996.9,N
1664168595.5,286046998.3,N
1664168615.4,286047004.2,N
1664168635.2,286047005.7,N
1664168655.0,286047004.4,N
1664168655.9,286047004.4,N
1664168675.8,286047006.1,N
1664168695.6,286047004.6,N
1664168715.5,286047006.2,N
1664168735.3,286047008.6,N
1664168755.1,286046999.8,N
1664168775.9,286047003.6,N
1664168795.7,286047003.6,N
1664168815.6,286047001.6,N
1664168835.4,286046998.4,N
1664168855.2,286047002.8,N
1664168875.1,286047001.8,N
1664168876.0,286047001.8,N
1664168895.8,286047001.2,N
1664168915.7,286046998.8,N
1664168935.5,286046998.1,N
1664168955.3,286046998.2,N
1664168975.2,286046998.3,N
1664168995.0,286046998.3,N
1664168995.9,286046998.3,N
1664169015.7,286046999.7,N
1664169035.6,286047002.4,N
1664169055.4,286047001.5,N
1664169075.3,286047000.4,N
1664169095.1,286046997.6,N
1664169096.0,286046997.6,N
1664169115.8,286046998.6,N
1664169135.7,286046998.1,N
1664169155.5,286046995.7,N
1664169175.4,286046994.4,N
1664169195.2,286046992.5,N
1664169215.0,286046990.1,N
1664169215.9,286046990.1,N
1664169235.8,286046994.8,N
1664169255.6,286046993.9,N
1664169275.4,286046997.6,N
1664169295.3,286046994.1,N
1664169315.1,286046989.0,Y
1664169335.9,286046990.1,P
1664169355.7,286046995.2,N
1664169375.5,286046996.2,N
1664169395.4,286046993.5,N
1664169415.2,286046997.7,N
1664169435.0,286046992.8,N
1664169435.9,286046992.8,N
1664169455.8,286046994.2,N
1664169475.6,286046991.8,Y
1664169495.5,286046995.4,P
1664169515.3,286046993.8,P
1664169535.1,286046995.4,P
1664169555.9,286046994.9,Y
1664169575.7,286047001.0,P
1664169595.5,286047002.3,N
1664169615.4,286046999.2,N
1664169635.2,286046999.2,N
1664169655.1,286046998.1,N
1664169656.0,286046998.1,N
1664169675.8,286047000.5,N
1664169695.6,286047001.7,N
1664169715.5,286047002.0,N
1664169735.3,286047005.5,N
1664169755.1,286047004.4,N
1664169775.9,286047005.1,N
1664169795.7,286047005.3,N
1664169815.6,286047003.4,N
1664169835.4,286047005.9,N
1664169855.2,286047004.2,N
1664169875.1,286047005.6,N
1664169876.0,286047005.6,N
1664169895.8,286047005.3,N
1664169915.6,286047002.3,N
1664169935.5,286047002.7,N
1664169955.3,286047002.6,N
1664169975.2,286047003.5,N
1664169995.9,286046999.7,N
1664170015.7,286047001.7,N
1664170035.6,286047003.4,N
1664170055.4,286047007.2,N
1664170075.2,286047006.4,N
1664170095.1,286047001.5,N
1664170096.0,286047001.5,N
1664170115.8,286047003.3,N
1664170135.7,286047005.5,N
1664170155.5,286047005.4,N
1664170175.3,286047004.8,N
1664170195.2,286047005.6,N
1664170215.0,286047003.9,N
1664170215.9,286047003.9,N
1664170235.7,286047006.8,Y
1664170255.6,286047000.5,P
1664170275.4,286046997.3,N
1664170295.3,286046995.7,N
1664170315.1,286047000.7,N
1664170316.0,286047000.7,N
1664170335.8,286047001.3,N
1664170355.7,286047001.5,N
1664170375.5,286047000.6,N
1664170395.3,286046998.2,N
1664170415.2,286047001.0,N
1664170435.0,286047005.3,N
1664170435.9,286047005.3,N
1664170455.8,286047005.1,N
1664170475.6,286047002.3,N
1664170495.4,286046998.8,N
1664170515.3,286046997.8,N
1664170535.1,286046995.6,N
1664170555.9,286046996.5,N
1664170575.7,286047002.8,N
1664170595.5,286047005.5,N
1664170615.4,286047004.8,N
1664170635.2,286047008.5,N
1664170655.0,286047005.1,N
1664170655.9,286047005.1,N
1664170675.8,286047003.5,N
1664170695.6,286047003.3,N
1664170715.5,286047002.0,N
1664170735.3,286047004.1,N
1664170755.1,286047002.9,N
1664170775.9,286047010.6,Y
1664170795.7,286047012.3,P
1664170815.6,286047010.4,N
1664170835.4,286047007.7,N
1664170855.2,286047010.1,N
1664170875.1,286047010.0,N
1664170876.0,286047010.0,N
1664170895.8,286047008.3,N
1664170915.6,286047007.9,N
1664170935.5,286047011.0,Y
1664170955.3,286047002.5,P
1664170975.2,286047000.3,N
1664170995.9,286047001.2,N
1664171015.7,286047000.4,N
1664171035.6,286046998.2,N
1664171055.4,286046997.9,N
1664171075.2,286046996.0,N
1664171095.1,286046995.0,N
1664171096.0,286046995.0,N
1664171115.8,286046997.5,N
1664171135.7,286046994.9,N
1664171155.5,286047001.1,N
1664171175.3,286047001.1,N
1664171195.2,286047003.5,N
1664171215.0,286047007.1,N
1664171215.9,286047007.1,N
1664171235.7,286047004.9,N
1664171255.6,286047009.0,N
1664171275.4,286047009.0,N
1664171295.3,286047006.2,N
1664171315.1,286047005.8,N
1664171316.0,286047005.8,N
1664171335.8,286047008.9,N
1664171355.7,286047003.5,N
1664171375.5,286046999.2,N
1664171395.3,286047002.0,N
1664171415.2,286046999.0,N
1664171435.0,286046994.1,N
1664171435.9,286046994.1,N
1664171455.8,286046996.0,N
1664171475.6,286046996.9,N
1664171495.4,286046999.8,N
1664171515.3,286046998.2,N
1664171535.1,286046995.0,N
1664171555.8,286046997.1,N
1664171575.7,286046999.1,N
1664171595.5,286046998.3,N
1664171615.4,286046997.0,N
1664171635.2,286046998.8,N
1664171655.0,286047002.7,N
1664171655.9,286047002.7,N
1664171675.8,286047002.5,N
1664171695.6,286046999.4,N
1664171715.4,286046999.4,N
1664171735.3,286046997.8,N
1664171755.1,286046992.0,N
1664171775.9,286046991.9,N
1664171795.7,286046993.5,N
1664171815.5,286047002.3,N
1664171835.4,286046996.9,N
1664171855.2,286046995.7,N
1664171875.0,286046997.7,N
1664171875.9,286046997.7,N
1664171895.8,286046998.6,N
1664171915.6,286046999.9,N
1664171965.5,286046997.0,E
1664171975.4,286046998.4,N
1664171995.2,286046999.9,P
